DW4236 Weather Reports


time (UTC)temp
F
wind
direction
speed
knots
gust
knots
rain 1hr
in
rain 24hr
in
rain mn
in
humidity
%
barometer
mb
20260831153604 76 316 0.9 2.6 0.00 0.03 0.00 76 1021.7
20260831153104 76 329 0.9 2.6 0.00 0.03 0.00 77 1021.7
20260831152604 76 64 1.7 4.3 0.00 0.03 0.00 77 1021.8
20260831151604 75 66 1.7 5.2 0.00 0.03 0.00 77 1021.7
20260831151104 75 110 0.9 2.6 0.00 0.03 0.00 78 1021.7
20260831150605 74 92 2.6 5.2 0.00 0.03 0.00 79 1021.7
20260831150104 74 131 1.7 5.2 0.00 0.03 0.00 80 1021.7
20260831145605 74 114 2.6 6.1 0.00 0.03 0.00 81 1021.7
20260831145104 73 35 1.7 4.3 0.00 0.03 0.00 81 1021.8
20260831144604 73 55 1.7 7.0 0.00 0.03 0.00 81 1021.8
20260831144105 73 89 1.7 2.6 0.00 0.03 0.00 81 1021.8
20260831143604 73 54 0.9 4.3 0.00 0.03 0.00 82 1021.9
20260831143104 73 11 2.6 5.2 0.00 0.03 0.00 81 1021.9
20260831142604 73 59 0.9 4.3 0.00 0.03 0.00 82 1021.9
20260831142105 73 106 0.9 2.6 0.00 0.03 0.00 82 1022.0
20260831141603 72 34 1.7 2.6 0.00 0.03 0.00 82 1022.0
20260831141104 72 100 2.6 6.1 0.00 0.03 0.00 83 1022.2
20260831140604 72 32 2.6 7.0 0.00 0.03 0.00 82 1022.1
20260831140104 72 81 1.7 2.6 0.00 0.03 0.00 84 1021.8
20260831135604 72 13 2.6 6.1 0.00 0.03 0.00 84 1021.7
20260831135104 72 61 1.7 4.3 0.00 0.03 0.00 85 1021.7
20260831134105 71 61 1.7 7.0 0.00 0.03 0.00 86 1021.8
20260831133104 70 97 1.7 5.2 0.00 0.03 0.00 88 1021.8
20260831132604 70 67 1.7 4.3 0.00 0.03 0.00 88 1021.8
20260831132105 70 25 1.7 5.2 0.00 0.03 0.00 89 1021.8
20260831131604 70 113 0.9 5.2 0.00 0.03 0.00 90 1021.7
20260831131104 69 113 0.9 5.2 0.00 0.03 0.00 90 1021.7
20260831130603 69 109 1.7 5.2 0.00 0.03 0.00 92 1021.9
20260831130104 69 125 2.6 7.0 0.00 0.03 0.00 92 1021.9
20260831125605 69 106 1.7 4.3 0.00 0.03 0.00 94 1021.9
20260831125104 69 17 0.9 4.3 0.00 0.03 0.00 95 1021.9
20260831124604 68 20 0.0 0.9 0.00 0.03 0.00 95 1021.8
20260831124104 68 20 0.0 0.9 0.00 0.03 0.00 95 1021.8
20260831123603 68 20 0.0 2.6 0.00 0.03 0.00 95 1021.6
20260831123104 68 255 0.0 0.9 0.00 0.03 0.00 95 1021.5
20260831122604 68 244 0.9 2.6 0.00 0.03 0.00 96 1021.6
20260831121104 67 258 0.0 0.0 0.00 0.03 0.00 96 1021.9
20260831120604 67 258 0.0 0.0 0.00 0.03 0.00 96 1021.9
20260831120104 67 258 0.0 0.0 0.00 0.03 0.00 96 1021.8
20260831115604 66 258 0.0 0.0 0.00 0.03 0.00 96 1021.7
20260831115105 66 258 0.0 0.0 0.00 0.03 0.00 96 1021.6
20260831114604 66 258 0.0 0.0 0.00 0.03 0.00 96 1021.8
20260831114103 65 258 0.0 0.0 0.00 0.03 0.00 96 1021.8
20260831113605 65 258 0.0 0.0 0.00 0.03 0.00 96 1021.7
20260831113103 65 258 0.0 0.0 0.00 0.03 0.00 96 1021.7
20260831112604 65 258 0.0 0.0 0.00 0.03 0.00 96 1021.5
20260831112104 64 258 0.0 0.0 0.00 0.03 0.00 96 1021.3
20260831111604 64 258 0.0 0.0 0.00 0.03 0.00 96 1021.3
20260831111105 64 258 0.0 0.0 0.00 0.03 0.00 96 1021.3
20260831110605 64 258 0.0 0.0 0.00 0.03 0.00 96 1021.4
20260831110105 64 258 0.0 0.0 0.00 0.03 0.00 96 1021.5
20260831105604 64 258 0.0 0.0 0.00 0.03 0.00 96 1021.3
20260831105104 64 258 0.0 0.0 0.00 0.03 0.00 95 1021.2
20260831104605 63 258 0.0 0.0 0.00 0.03 0.00 95 1021.1
20260831104104 63 258 0.0 0.0 0.00 0.03 0.00 95 1021.0
20260831103603 64 258 0.0 0.0 0.00 0.03 0.00 95 1021.0
20260831103104 64 258 0.0 0.0 0.00 0.03 0.00 95 1021.1
20260831102105 64 258 0.0 0.0 0.00 0.03 0.00 95 1021.0
20260831101103 64 258 0.0 0.0 0.00 0.03 0.00 95 1020.8
20260831100604 64 258 0.0 0.0 0.00 0.03 0.00 95 1020.8
20260831100104 64 258 0.0 0.0 0.00 0.03 0.00 95 1020.8
20260831095603 64 258 0.0 0.0 0.00 0.03 0.00 95 1020.8
20260831095105 64 258 0.0 0.0 0.00 0.03 0.00 95 1020.8
20260831094604 64 258 0.0 0.0 0.00 0.03 0.00 95 1020.7
20260831094104 64 258 0.0 0.0 0.00 0.03 0.00 95 1020.7
20260831093604 64 258 0.0 0.0 0.00 0.03 0.00 95 1020.6
20260831093104 64 258 0.0 0.0 0.00 0.03 0.00 95 1020.6
20260831092605 64 258 0.0 0.0 0.00 0.03 0.00 95 1020.7
20260831092105 64 258 0.0 0.0 0.00 0.03 0.00 95 1020.7
20260831091605 64 258 0.0 0.0 0.00 0.03 0.00 95 1020.7
20260831090604 64 258 0.0 0.0 0.00 0.03 0.00 95 1020.8
20260831090104 64 258 0.0 0.0 0.00 0.03 0.00 95 1020.8
20260831085104 64 258 0.0 0.0 0.00 0.03 0.00 95 1020.9
20260831084604 64 258 0.0 0.0 0.00 0.03 0.00 95 1020.8
20260831084104 64 258 0.0 0.0 0.00 0.03 0.00 94 1020.8
20260831083603 64 258 0.0 0.0 0.00 0.03 0.00 95 1020.7
20260831082604 64 258 0.0 0.0 0.00 0.03 0.00 94 1020.6
20260831082105 64 258 0.0 0.0 0.00 0.03 0.00 94 1020.7
20260831081604 64 258 0.0 0.0 0.00 0.03 0.00 94 1020.6
20260831081105 64 258 0.0 0.0 0.00 0.03 0.00 94 1020.7
20260831080605 64 258 0.0 0.0 0.00 0.03 0.00 94 1020.8
20260831080104 64 258 0.0 0.0 0.00 0.03 0.00 94 1020.7
20260831075604 64 258 0.0 0.0 0.00 0.03 0.00 94 1020.7
20260831074604 65 258 0.0 0.0 0.00 0.03 0.00 94 1020.7
20260831074104 65 258 0.0 0.0 0.00 0.03 0.00 94 1020.7
20260831073604 65 258 0.0 0.0 0.00 0.03 0.00 94 1020.5
20260831073104 65 258 0.0 0.0 0.00 0.03 0.00 94 1020.5
20260831072605 65 258 0.0 0.0 0.00 0.03 0.00 94 1020.5
20260831072104 65 258 0.0 0.0 0.00 0.03 0.00 94 1020.4
20260831071105 65 258 0.0 0.0 0.00 0.03 0.00 93 1020.6
20260831070605 65 258 0.0 0.0 0.00 0.03 0.00 94 1020.5
20260831070104 65 258 0.0 0.0 0.00 0.03 0.00 93 1020.4
20260831065604 66 258 0.0 1.7 0.00 0.03 0.00 93 1020.5
20260831064604 66 253 0.0 0.0 0.00 0.03 0.00 93 1020.4
20260831063605 66 253 0.0 0.0 0.00 0.03 0.00 93 1020.2
20260831063105 66 253 0.0 0.0 0.00 0.03 0.00 93 1020.2
20260831062604 66 253 0.0 0.0 0.00 0.03 0.00 93 1020.2
20260831062103 66 253 0.0 0.0 0.00 0.03 0.00 93 1020.2
20260831061605 66 253 0.0 0.0 0.00 0.03 0.00 93 1020.2
20260831060605 67 253 0.0 0.9 0.00 0.03 0.00 92 1020.1
20260831060104 67 255 0.0 0.0 0.00 0.03 0.00 92 1020.2
20260831055604 67 255 0.0 0.0 0.00 0.03 0.00 92 1020.1
20260831054604 67 255 0.9 1.7 0.00 0.03 0.00 93 1020.1
20260831054104 67 255 0.0 0.9 0.00 0.03 0.00 93 1020.2
20260831053604 67 255 0.0 0.0 0.00 0.03 0.00 93 1020.1
20260831053104 67 255 0.0 2.6 0.00 0.03 0.00 93 1020.2
20260831052605 67 255 0.9 1.7 0.00 0.03 0.00 93 1020.1
20260831052104 68 255 0.0 0.0 0.00 0.03 0.00 93 1020.0
20260831051604 68 255 0.0 0.0 0.00 0.03 0.00 93 1019.8
20260831041104 70 255 0.0 0.0 0.00 0.03 0.00 93 1019.9
20260831040604 70 255 0.0 0.0 0.00 0.03 0.00 93 1020.0
20260831040104 70 255 0.0 0.0 0.00 0.03 0.00 93 1020.1
20260831035104 70 255 0.0 0.0 0.00 0.03 0.03 93 1020.0
20260831034604 70 255 0.0 0.0 0.00 0.03 0.03 93 1020.0
20260831034103 70 255 0.0 0.0 0.00 0.03 0.03 93 1019.9
20260831033104 70 255 0.0 0.0 0.00 0.03 0.03 93 1020.0
20260831032604 70 255 0.9 2.6 0.00 0.03 0.03 93 1020.0
20260831032103 70 255 0.0 0.9 0.00 0.03 0.03 93 1020.1
20260831030604 71 255 0.9 1.7 0.00 0.03 0.03 93 1019.9
20260831030104 71 255 0.9 2.6 0.00 0.03 0.03 93 1019.9
20260831025604 71 255 0.9 1.7 0.00 0.03 0.03 93 1020.1
20260831025104 71 255 0.0 0.9 0.00 0.03 0.03 93 1020.1
20260831024604 71 255 0.0 0.9 0.01 0.03 0.03 93 1020.2
20260831024103 71 255 0.0 0.9 0.01 0.03 0.03 93 1020.2
20260831023605 71 255 0.9 2.6 0.01 0.03 0.03 93 1020.3
20260831023104 72 255 0.9 2.6 0.02 0.03 0.03 93 1020.2
20260831022103 72 254 0.0 1.7 0.02 0.03 0.03 93 1020.3
20260831021604 72 254 0.0 1.7 0.02 0.03 0.03 93 1020.3
20260831020105 72 254 0.9 2.6 0.02 0.03 0.03 93 1020.2
20260831015605 72 257 0.0 1.7 0.02 0.03 0.03 93 1020.1
20260831015104 72 259 0.0 2.6 0.02 0.03 0.03 93 1020.2
20260831014604 72 259 0.0 2.6 0.01 0.02 0.02 92 1020.2
20260831014104 72 275 0.0 0.0 0.01 0.02 0.02 92 1020.2
20260831013604 73 275 0.0 1.7 0.01 0.02 0.02 92 1020.1
20260831012604 73 269 1.7 2.6 0.00 0.01 0.01 92 1020.0
20260831012103 73 293 0.9 2.6 0.00 0.01 0.01 92 1019.8
20260831011604 73 275 0.0 2.6 0.01 0.01 0.01 92 1019.7
20260831010603 73 269 0.0 2.6 0.01 0.01 0.01 91 1019.6
20260831005604 73 269 0.0 1.7 0.01 0.01 0.01 91 1019.5
20260831004604 73 269 0.9 2.6 0.01 0.01 0.01 90 1019.4
20260831004104 73 264 0.9 2.6 0.01 0.01 0.01 90 1019.4
20260831003604 73 263 0.9 2.6 0.01 0.01 0.01 90 1019.4
20260831003104 73 282 0.0 1.7 0.01 0.01 0.01 90 1019.4
20260831002604 74 276 0.9 2.6 0.01 0.01 0.01 89 1019.3
20260831002105 74 272 0.0 2.6 0.01 0.01 0.01 89 1019.3
20260831001604 74 272 2.6 6.1 0.00 0.00 0.00 89 1019.2
20260831001104 74 247 0.9 2.6 0.00 0.00 0.00 88 1019.1
20260831000605 74 247 0.9 2.6 0.00 0.00 0.00 88 1019.1
20260831000105 74 247 0.9 2.6 0.00 0.00 0.00 88 1019.0
20260830235104 74 288 0.9 2.6 0.00 0.00 0.00 88 1018.8
20260830234603 74 289 0.9 4.3 0.00 0.00 0.00 87 1018.8
20260830234103 74 253 1.7 2.6 0.00 0.00 0.00 87 1018.7
20260830233104 75 278 0.0 0.0 0.00 0.00 0.00 86 1018.6
20260830232604 75 278 0.0 0.0 0.00 0.00 0.00 86 1018.6
20260830232104 75 278 0.0 0.9 0.00 0.00 0.00 86 1018.6
20260830231604 75 278 0.0 2.6 0.00 0.00 0.00 85 1018.5
20260830231104 75 274 0.9 1.7 0.00 0.00 0.00 85 1018.6
20260830230604 75 276 0.0 0.0 0.00 0.00 0.00 84 1018.6
20260830225604 75 274 0.9 5.2 0.00 0.00 0.00 84 1018.7
20260830225103 75 273 0.0 1.7 0.00 0.00 0.00 84 1018.7
20260830224604 76 272 1.7 2.6 0.00 0.00 0.00 84 1018.6
20260830224104 76 265 0.9 2.6 0.00 0.00 0.00 83 1018.7
20260830223603 76 263 1.7 2.6 0.00 0.00 0.00 83 1018.7
20260830223104 76 269 0.9 2.6 0.00 0.00 0.00 83 1018.8
20260830222604 76 253 0.0 0.9 0.00 0.00 0.00 83 1018.7
20260830222105 76 253 0.9 2.6 0.00 0.00 0.00 83 1018.7
20260830221604 76 255 0.9 2.6 0.00 0.00 0.00 83 1018.6
20260830221103 76 262 0.9 2.6 0.00 0.00 0.00 82 1018.7
20260830220604 76 263 1.7 2.6 0.00 0.00 0.00 82 1018.7
20260830220104 76 264 1.7 4.3 0.00 0.00 0.00 82 1018.7
20260830215604 76 269 1.7 2.6 0.00 0.00 0.00 82 1018.6
20260830215103 76 262 0.9 2.6 0.00 0.00 0.00 82 1018.6
20260830214604 76 284 2.6 5.2 0.00 0.00 0.00 82 1018.6
20260830214104 76 284 0.9 7.0 0.00 0.00 0.00 82 1018.6
20260830213604 76 256 0.9 2.6 0.00 0.00 0.00 82 1018.6
20260830213103 76 257 1.7 2.6 0.00 0.00 0.00 82 1018.6
20260830212604 76 284 1.7 4.3 0.00 0.00 0.00 82 1018.5
20260830212105 76 256 1.7 4.3 0.00 0.00 0.00 82 1018.5
20260830211604 76 261 0.0 2.6 0.00 0.00 0.00 83 1018.5
20260830211104 77 255 1.7 5.2 0.00 0.00 0.00 82 1018.5
20260830210604 77 290 0.9 2.6 0.00 0.00 0.00 82 1018.6
20260830210104 77 292 0.9 2.6 0.00 0.00 0.00 82 1018.6
20260830205603 77 286 0.0 5.2 0.00 0.00 0.00 82 1018.7
20260830204605 77 264 1.7 7.0 0.00 0.00 0.00 82 1018.7
20260830204104 77 253 1.7 2.6 0.00 0.00 0.00 82 1018.8
20260830203603 77 259 2.6 4.3 0.00 0.00 0.00 81 1018.9
20260830203105 77 250 0.0 0.9 0.00 0.00 0.00 82 1018.8
20260830202604 77 250 2.6 7.0 0.00 0.00 0.00 81 1018.7
20260830202104 77 240 3.5 7.0 0.00 0.00 0.00 81 1018.7
20260830201103 77 269 1.7 7.0 0.00 0.00 0.00 83 1019.0
20260830200604 76 259 0.9 2.6 0.00 0.00 0.00 83 1018.9
20260830200104 76 256 0.0 0.9 0.00 0.00 0.00 83 1018.9
20260830195104 77 185 0.9 2.6 0.00 0.00 0.00 82 1018.9
20260830194603 77 253 1.7 5.2 0.00 0.00 0.00 81 1018.9
20260830194105 77 221 1.7 6.1 0.00 0.00 0.00 81 1018.9
20260830193603 77 243 0.9 7.8 0.00 0.00 0.00 81 1019.0
20260830193104 77 250 2.6 7.8 0.00 0.00 0.00 80 1019.1
20260830192603 77 241 0.9 8.7 0.00 0.00 0.00 80 1019.2
20260830192104 77 267 4.3 10.4 0.00 0.00 0.00 79 1019.2
20260830191604 77 231 0.9 4.3 0.00 0.00 0.00 81 1019.2
20260830191105 77 246 1.7 4.3 0.00 0.00 0.00 81 1019.3
20260830190103 77 274 1.7 7.0 0.00 0.00 0.00 80 1019.7
20260830185104 77 189 0.9 4.3 0.00 0.00 0.00 79 1019.9
20260830184603 77 203 0.9 4.3 0.00 0.00 0.00 79 1020.0
20260830184103 77 284 1.7 4.3 0.00 0.00 0.00 80 1020.0
20260830183605 77 228 1.7 2.6 0.00 0.00 0.00 78 1019.9
20260830183104 77 220 1.7 2.6 0.00 0.00 0.00 78 1020.1
20260830182604 77 214 2.6 6.1 0.00 0.00 0.00 77 1020.2
20260830182103 77 244 0.9 1.7 0.00 0.00 0.00 77 1020.2
20260830181604 76 249 2.6 8.7 0.00 0.00 0.00 76 1020.3
20260830181104 77 198 0.9 6.1 0.00 0.00 0.00 75 1020.4
20260830180604 77 249 1.7 7.0 0.00 0.00 0.00 74 1020.4
20260830180104 77 251 2.6 6.1 0.00 0.00 0.00 74 1020.3
20260830175603 77 244 1.7 7.0 0.00 0.00 0.00 73 1020.3
20260830175104 77 267 0.9 8.7 0.00 0.00 0.00 73 1020.3
20260830174604 77 204 0.9 6.1 0.00 0.00 0.00 72 1020.3
20260830174105 77 235 0.9 5.2 0.00 0.00 0.00 72 1020.4
20260830173605 77 269 1.7 4.3 0.00 0.00 0.00 70 1020.5
20260830172103 78 289 2.6 8.7 0.00 0.00 0.00 69 1020.6
20260830171604 79 259 1.7 8.7 0.00 0.00 0.00 68 1020.7
20260830171104 79 255 3.5 8.7 0.00 0.00 0.00 67 1020.8
20260830170605 79 264 1.7 7.0 0.00 0.00 0.00 69 1020.8
20260830170103 79 249 1.7 7.0 0.00 0.00 0.00 68 1020.8
20260830165604 79 283 4.3 8.7 0.00 0.00 0.00 67 1020.8
20260830165103 78 280 2.6 7.8 0.00 0.00 0.00 68 1020.8
20260830164604 78 271 4.3 8.7 0.00 0.00 0.00 68 1021.0
20260830164104 79 298 3.5 7.0 0.00 0.00 0.00 67 1021.1
20260830163606 78 278 2.6 6.1 0.00 0.00 0.00 67 1021.0
20260830163104 78 301 0.9 2.6 0.00 0.00 0.00 67 1021.0
20260830161606 80 299 1.7 5.2 0.00 0.00 0.00 63 1021.0
20260830161105 81 268 1.7 6.1 0.00 0.00 0.00 65 1021.1
20260830155605 80 202 1.7 4.3 0.00 0.00 0.00 66 1021.4
20260830155105 79 171 1.7 6.1 0.00 0.00 0.00 67 1021.3
20260830154105 79 208 0.9 4.3 0.00 0.00 0.00 66 1021.7